Alexandria, LA

2:54 PM CDT on July 21, 2017 (GMT -0500)
Alexandria International

Weather History for KAEX - January, 1999

Change the Weather History Date:

Wednesday, January 27, 1999

  Actual Average Record
Temperature  
Mean Temperature 60 °F 49 °F  
Max Temperature 71 °F 60 °F 82 °F (1903)
Min Temperature 50 °F 38 °F 8 °F (1940)
Degree Days  
Heating Degree Days 4 16  
Month to date heating degree days 432  
Since 1 July heating degree days 1221  
Growing Degree Days 10 (Base 50)    
Moisture  
Dew Point 57 °F    
Average Humidity 94    
Maximum Humidity 100    
Minimum Humidity 69    
Precipitation  
Precipitation 0.00 in 0.20 in 4.75 in (1994)
Month to date precipitation 4.39  
Year to date precipitation 4.39  
Snow  
Snow 0.00 in - T in (1948)
Month to date snowfall  
Since 1 July snowfall  
Snow Depth -    
Sea Level Pressure  
Sea Level Pressure 30.15 in    
Wind  
Wind Speed 7 mph (SE)    
Max Wind Speed 12 mph    
Max Gust Speed -    
Visibility 4 miles    
Events Fog    
T = Trace of Precipitation, MM = Missing Value Source: NWS Daily Summary

Daily Weather History Graph

Daily Weather History Graph

Search for Another Location

Airport or City:

Trip Planner

Search our weather history database for the weather conditions in past years. The results will help you decide how hot, cold, wet, or windy it might be!

Date:

Astronomy

Jan. 27, 1999 Rise Set
Actual Time 7:05 AM CST 5:40 PM CST
Civil Twilight 6:40 AM CST 6:06 PM CST
Nautical Twilight 6:10 AM CST 6:35 PM CST
Astronomical Twilight 5:41 AM CST 7:04 PM CST
Moon 2:06 PM CST (1/27) 3:09 AM CST (1/27)
Length of Visible Light 11h 26m
Length of Day
10h 34m
Waxing Gibbous, 81% of the Moon is Illuminated
Jan 27
Waxing Gibbous
Jan 31
Full
Feb 8
Last Quarter
Feb 16
New
Feb 22
First Quarter

Hourly Weather History & Observations

Time (CST) Temp. Dew Point Humidity Pressure Visibility Wind Dir Wind Speed Gust Speed Precip Events Conditions
12:50 AM 53.6 °F 53.6 °F 100% 30.18 in 10.0 mi SSE 5.8 mph - N/A   Clear
1:50 AM 51.8 °F 51.8 °F 100% 30.17 in 10.0 mi SSE 6.9 mph - N/A   Clear
2:50 AM 55.4 °F 53.6 °F 94% 30.17 in 10.0 mi SSE 6.9 mph - N/A   Clear
3:50 AM 51.8 °F 51.8 °F 100% 30.17 in 7.0 mi ESE 6.9 mph - N/A   Mostly Cloudy
4:50 AM 50.0 °F 50.0 °F 100% 30.16 in 3.0 mi SE 6.9 mph - N/A   Clear
5:50 AM 50.0 °F 50.0 °F 100% 30.17 in 0.5 mi SE 5.8 mph - N/A Fog Fog
6:15 AM 53.6 °F 53.6 °F 100% 30.18 in 0.2 mi SE 5.8 mph - N/A Fog Fog
6:50 AM 53.6 °F 53.6 °F 100% 30.19 in 0.1 mi ESE 3.5 mph - N/A Fog Fog
7:30 AM 53.6 °F 53.6 °F 100% 30.19 in 0.1 mi ESE 9.2 mph - N/A Fog Fog
7:36 AM 53.6 °F 53.6 °F 100% 30.19 in 0.2 mi SE 9.2 mph - N/A Fog Fog
7:55 AM 55.4 °F 55.4 °F 100% 30.19 in 1.0 mi SE 9.2 mph - N/A   Mostly Cloudy
8:13 AM 55.4 °F 55.4 °F 100% 30.19 in 0.5 mi ESE 6.9 mph - N/A   Mostly Cloudy
8:27 AM 55.4 °F 55.4 °F 100% 30.20 in 0.1 mi ESE 6.9 mph - N/A Fog Fog
8:40 AM 55.4 °F 55.4 °F 100% 30.20 in 0.2 mi ESE 6.9 mph - N/A Fog Fog
8:50 AM 55.4 °F 55.4 °F 100% 30.20 in 0.2 mi ESE 6.9 mph - N/A Fog Fog
9:50 AM 57.2 °F 57.2 °F 100% 30.21 in 0.1 mi SSE 6.9 mph - N/A Fog Fog
10:03 AM 59.0 °F 59.0 °F 100% 30.21 in 0.2 mi SSE 9.2 mph - N/A Fog Fog
10:08 AM 59.0 °F 59.0 °F 100% 30.21 in 0.5 mi SSE 11.5 mph - N/A   Mist
10:18 AM 60.8 °F 60.8 °F 100% 30.20 in 1.0 mi South 11.5 mph - N/A   Overcast
10:50 AM 62.6 °F 62.6 °F 100% 30.20 in 2.0 mi SSE 9.2 mph - N/A   Overcast
11:50 AM 66.2 °F 62.6 °F 88% 30.17 in 6.0 mi SSE 9.2 mph - N/A   Overcast
12:10 PM 68.0 °F 62.6 °F 83% 30.16 in 7.0 mi SSE 10.4 mph - N/A   Overcast
1:50 PM 71.6 °F 62.6 °F 73% 30.11 in 7.0 mi South 11.5 mph - N/A   Overcast
2:50 PM 71.6 °F 62.6 °F 73% 30.09 in 5.0 mi SE 8.1 mph - N/A   Haze
3:50 PM 71.6 °F 60.8 °F 69% 30.07 in 6.0 mi ESE 6.9 mph - N/A   Haze
4:50 PM 69.8 °F 60.8 °F 73% 30.06 in 6.0 mi ESE 6.9 mph - N/A   Haze
6:50 PM 66.2 °F 60.8 °F 83% 30.07 in 7.0 mi SSE 4.6 mph - N/A   Overcast
7:50 PM 62.6 °F 60.8 °F 94% 30.07 in 7.0 mi SE 6.9 mph - N/A   Mostly Cloudy
9:50 PM 60.8 °F 59.0 °F 94% 30.07 in 7.0 mi SE 6.9 mph - N/A   Scattered Clouds
10:50 PM 62.6 °F 60.8 °F 94% 30.07 in 7.0 mi SE 5.8 mph - N/A   Overcast
11:50 PM 62.6 °F 59.0 °F 88% 30.07 in 7.0 mi SSE 5.8 mph - N/A   Mostly Cloudy